Latest Weather Observations for Bankstown

IDN60901

Issued at 9:45 am EDT Tuesday 21 October 2014 (issued every 10 minutes, with the page automatically refreshed every 10 minutes)

About weather observations | Map of Sydney area stations | Latest observations for Sydney area | Other Formats
Station Details ID: 066137 Name: BANKSTOWN AIRPORT AWS Lat: -33.92 Lon: 150.99 Height: 6.5 m
Data from the previous 72 hours. | See also: Recent months at Bankstown
Date/Time
EDT
Tmp

°C
App
Tmp
°C
Dew
Point
°C
Rel
Hum
%
Delta-T

°C
Wind Press
QNH
hPa
Press
MSL
hPa
Rain
since
9 am
mm
Dir
 
Spd
km/h
Gust
km/h
Spd
kts
Gust
kts
21/09:30am 17.0 13.5 7.1 52 4.9 ESE 15 20 8 11 1032.9 1032.9 0.0
21/09:00am 16.1 14.9 9.5 65 3.4 SSE 6 11 3 6 1032.7 1032.7 0.4
21/08:30am 15.2 14.2 11.0 76 2.2 SSW 7 9 4 5 1032.5 1032.5 0.4
21/08:00am 14.7 13.9 11.1 79 1.9 SSW 6 7 3 4 1032.3 1032.3 0.4
21/07:30am 14.2 13.2 11.0 81 1.7 SSW 7 9 4 5 1032.0 1032.0 0.4
21/07:00am 13.8 12.0 11.0 83 1.5 SSW 11 13 6 7 1031.8 1031.8 0.4
21/06:30am 13.7 12.7 11.0 84 1.4 SSW 7 9 4 5 1031.5 1031.5 0.4
21/06:00am 13.5 12.6 11.2 86 1.2 SSW 7 7 4 4 1031.2 1031.2 0.4
21/05:30am 13.7 13.7 11.0 84 1.4 S 2 6 1 3 1031.0 1031.0 0.4
21/05:00am 13.6 12.3 11.3 86 1.2 SSW 9 11 5 6 1031.1 1031.1 0.4
21/04:30am 13.7 12.8 11.4 86 1.2 S 7 9 4 5 1031.0 1031.0 0.4
21/04:00am 13.8 13.1 11.3 85 1.3 ESE 6 7 3 4 1031.1 1031.1 0.4
21/03:30am 14.0 13.2 11.2 83 1.5 ENE 6 9 3 5 1031.2 1031.2 0.4
21/03:00am 14.1 12.6 12.0 87 1.1 SE 11 13 6 7 1031.5 1031.5 0.2
21/02:30am 14.0 12.9 12.0 88 1.1 SE 9 13 5 7 1031.6 1031.6 0.2
21/02:28am 14.0 12.9 12.0 88 1.1 SE 9 13 5 7 1031.6 1031.6 0.2
21/02:05am 14.1 11.8 11.6 85 1.3 SE 15 20 8 11 1031.6 1031.6 0.0
21/02:00am 14.2 11.4 11.5 84 1.4 SE 17 24 9 13 1031.7 1031.7 0.0
21/01:30am 14.7 14.2 12.2 85 1.4 W 6 9 3 5 1031.6 1031.6 0.0
21/01:00am 14.8 13.8 12.3 85 1.3 SW 9 11 5 6 1031.7 1031.7 0.0
21/12:30am 14.6 14.9 12.1 85 1.4 E 2 6 1 3 1031.9 1031.9 0.0
21/12:00am 15.0 14.9 12.0 82 1.6 E 4 7 2 4 1032.0 1032.0 0.0
 
Date/Time
EDT
Tmp

°C
App
Tmp
°C
Dew
Point
°C
Rel
Hum
%
Delta-T

°C
Wind Press
QNH
hPa
Press
MSL
hPa
Rain
since
9 am
mm
Dir
 
Spd
km/h
Gust
km/h
Spd
kts
Gust
kts
20/11:30pm 15.0 12.3 11.8 81 1.7 SE 17 24 9 13 1032.2 1032.2 0.0
20/11:00pm 16.0 14.9 10.5 70 2.9 SSE 7 9 4 5 1032.0 1032.0 0.0
20/10:30pm 16.1 13.9 10.8 71 2.8 SE 13 17 7 9 1032.0 1032.0 0.0
20/10:00pm 15.5 14.2 11.3 76 2.2 SSE 9 13 5 7 1032.1 1032.1 0.0
20/09:30pm 15.6 13.6 11.4 76 2.3 E 13 13 7 7 1031.9 1031.9 0.0
20/09:00pm 15.8 12.5 11.6 76 2.2 SE 20 32 11 17 1032.0 1032.0 0.0
20/08:30pm 16.9 13.5 9.3 61 3.9 SSE 17 20 9 11 1031.4 1031.4 0.0
20/08:00pm 17.0 12.7 9.2 60 4.0 SSE 22 28 12 15 1031.1 1031.1 0.0
20/07:30pm 16.9 14.0 8.1 56 4.5 SSE 13 17 7 9 1030.8 1030.8 0.0
20/07:00pm 16.7 13.2 8.7 59 4.1 SSE 17 22 9 12 1030.7 1030.7 0.0
20/06:30pm 17.0 13.0 9.2 60 4.0 SSE 20 30 11 16 1030.4 1030.4 0.0
20/06:00pm 17.3 13.5 9.0 58 4.3 SSE 19 32 10 17 1030.2 1030.2 0.0
20/05:30pm 16.9 12.1 8.8 59 4.2 SSE 24 33 13 18 1030.1 1030.1 0.0
20/05:00pm 17.8 12.9 8.4 54 4.8 S 24 30 13 16 1030.0 1030.0 0.0
20/04:30pm 17.4 11.9 9.1 58 4.3 SE 28 35 15 19 1030.0 1030.0 0.0
20/04:00pm 17.5 12.5 9.7 60 4.1 SE 26 35 14 19 1030.0 1030.0 0.0
20/03:34pm 17.5 12.3 10.1 62 3.9 SSE 28 48 15 26 1029.9 1029.9 0.0
20/03:30pm 18.2 14.0 9.8 58 4.4 SSE 22 28 12 15 1029.8 1029.8 0.0
20/03:00pm 17.8 12.3 10.4 62 3.9 SSE 30 43 16 23 1030.0 1030.0 0.0
20/02:30pm 17.8 13.7 11.4 66 3.5 SSE 24 43 13 23 1030.2 1030.2 0.0
20/02:00pm 15.9 10.7 11.7 76 2.3 SSE 30 39 16 21 1030.6 1030.6 0.0
20/01:30pm 18.5 15.3 11.8 65 3.7 S 20 28 11 15 1030.4 1030.4 0.0
20/01:00pm 19.3 14.7 11.1 59 4.4 S 26 35 14 19 1030.2 1030.2 0.0
20/12:30pm 19.9 13.8 9.8 52 5.4 S 32 41 17 22 1030.2 1030.2 0.0
20/12:00pm 20.0 13.9 9.6 51 5.5 S 32 44 17 24 1030.5 1030.5 0.0
20/11:30am 18.8 13.3 9.0 53 5.1 S 28 39 15 21 1030.8 1030.8 0.0
20/11:00am 18.9 13.3 8.6 51 5.3 S 28 39 15 21 1030.7 1030.7 0.0
20/10:30am 18.9 11.6 8.6 51 5.3 SSE 37 50 20 27 1030.7 1030.7 0.0
20/10:01am 19.0 12.1 8.9 52 5.3 S 35 54 19 29 1030.4 1030.4 0.0
20/10:00am 19.1 12.3 9.3 53 5.1 S 35 48 19 26 1030.4 1030.4 0.0
20/09:30am 19.5 12.9 10.0 54 5.1 S 35 48 19 26 1029.9 1029.9 0.0
20/09:04am 18.5 11.4 8.2 51 5.3 SSE 35 56 19 30 1029.3 1029.3 0.0
20/09:00am 19.8 13.8 10.0 53 5.2 SSE 32 39 17 21 1029.2 1029.2 0.0
20/08:45am 18.3 10.7 9.1 55 4.8 SSE 39 57 21 31 1028.9 1028.9 0.0
20/08:30am 18.7 12.6 9.8 56 4.7 SSE 32 48 17 26 1028.5 1028.5 0.0
20/08:00am 18.2 11.0 10.6 61 4.1 SSE 39 61 21 33 1027.8 1027.8 0.0
20/07:48am 18.2 11.8 10.6 61 4.1 SSE 35 54 19 29 1027.6 1027.6 0.0
20/07:30am 17.9 11.5 10.8 63 3.8 SSE 35 48 19 26 1026.9 1026.9 0.0
20/07:00am 17.6 11.4 11.4 67 3.4 SSE 35 56 19 30 1025.9 1025.9 0.0
20/06:30am 17.4 11.8 12.1 71 2.9 SSE 33 57 18 31 1025.1 1025.1 0.0
20/06:00am 17.9 12.8 13.6 76 2.4 SSE 33 56 18 30 1024.2 1024.2 0.0
20/05:57am 17.9 13.4 13.8 77 2.3 SSE 30 56 16 30 1024.1 1024.1 0.0
20/05:30am 13.8 11.0 11.5 86 1.2 S 17 41 9 22 1023.1 1023.1 0.0
20/05:00am 13.9 13.7 11.9 88 1.1 NW 4 9 2 5 1021.6 1021.6 0.0
20/04:30am 13.5 13.9 11.2 86 1.2 CALM 0 0 0 0 1021.3 1021.3 0.0
20/04:00am 13.8 13.1 11.5 86 1.2 NW 6 7 3 4 1021.4 1021.4 0.0
20/03:30am 14.2 14.9 12.1 87 1.1 CALM 0 0 0 0 1021.6 1021.6 0.0
20/03:00am 13.7 14.2 11.6 87 1.1 CALM 0 0 0 0 1022.0 1022.0 0.0
20/02:30am 14.2 14.6 11.4 83 1.5 CALM 0 0 0 0 1021.8 1021.8 0.0
20/02:00am 14.8 15.5 12.1 84 1.5 CALM 0 0 0 0 1021.9 1021.9 0.0
20/01:30am 14.9 15.5 11.9 82 1.6 CALM 0 0 0 0 1022.1 1022.1 0.0
20/01:00am 16.1 16.9 12.5 79 2.0 CALM 0 0 0 0 1022.4 1022.4 0.0
20/12:30am 15.5 15.9 12.6 83 1.6 W 2 6 1 3 1022.9 1022.9 0.0
20/12:00am 15.4 16.1 12.2 81 1.7 CALM 0 0 0 0 1023.1 1023.1 0.0
 
Date/Time
EDT
Tmp

°C
App
Tmp
°C
Dew
Point
°C
Rel
Hum
%
Delta-T

°C
Wind Press
QNH
hPa
Press
MSL
hPa
Rain
since
9 am
mm
Dir
 
Spd
km/h
Gust
km/h
Spd
kts
Gust
kts
19/11:30pm 15.7 16.4 12.3 80 1.9 CALM 0 0 0 0 1023.0 1023.0 0.0
19/11:00pm 17.0 17.5 11.5 70 3.0 CALM 0 0 0 0 1023.0 1023.0 0.0
19/10:30pm 17.5 17.9 11.1 66 3.5 CALM 0 6 0 3 1023.0 1023.0 0.0
19/10:00pm 18.9 18.3 11.7 63 3.9 NE 6 7 3 4 1023.2 1023.2 0.0
19/09:30pm 19.4 19.2 11.7 61 4.2 NE 4 7 2 4 1023.2 1023.2 0.0
19/09:00pm 19.7 18.8 11.5 59 4.5 ENE 7 11 4 6 1022.8 1022.8 0.0
19/08:30pm 20.2 18.9 11.1 56 5.0 ENE 9 15 5 8 1022.5 1022.5 0.0
19/08:00pm 20.7 19.6 10.8 53 5.4 NE 7 13 4 7 1022.1 1022.1 0.0
19/07:30pm 21.3 20.1 10.2 49 6.0 NE 7 15 4 8 1021.8 1021.8 0.0
19/07:00pm 22.6 21.1 10.4 46 6.7 NE 9 15 5 8 1021.4 1021.4 0.0
19/06:30pm 23.6 20.9 10.3 43 7.3 NE 15 20 8 11 1021.0 1021.0 0.0
19/06:00pm 24.6 21.1 10.1 40 8.0 NE 19 28 10 15 1020.8 1020.8 0.0
19/05:30pm 25.9 22.1 9.7 36 8.9 NE 20 28 11 15 1020.9 1020.9 0.0
19/05:00pm 26.4 22.7 10.1 36 9.0 ENE 20 28 11 15 1020.8 1020.8 0.0
19/04:30pm 27.2 23.6 10.0 34 9.6 ENE 19 26 10 14 1020.9 1020.9 0.0
19/04:00pm 27.8 25.1 9.1 31 10.3 NNE 13 22 7 12 1021.0 1021.0 0.0
19/03:30pm 28.2 25.4 3.1 20 12.5 N 7 11 4 6 1021.5 1021.5 0.0
19/03:00pm 27.9 24.9 2.2 19 12.5 NW 7 15 4 8 1021.9 1021.9 0.0
19/02:30pm 27.9 24.3 4.9 23 11.8 N 13 19 7 10 1022.4 1022.4 0.0
19/02:00pm 26.8 23.6 3.3 22 11.6 N 9 17 5 9 1022.7 1022.7 0.0
19/01:30pm 26.9 23.8 7.4 29 10.4 N 13 22 7 12 1023.3 1023.3 0.0
19/01:00pm 25.8 22.5 6.4 29 10.0 NNW 13 17 7 9 1023.8 1023.8 0.0
19/12:30pm 25.1 21.4 6.3 30 9.7 N 15 22 8 12 1024.3 1024.3 0.0
19/12:00pm 24.3 20.2 6.1 31 9.3 NNW 17 24 9 13 1024.8 1024.8 0.0
19/11:30am 23.8 20.9 8.2 37 8.3 NNW 13 20 7 11 1025.4 1025.4 0.0
19/11:00am 22.0 18.0 6.7 37 7.8 N 17 24 9 13 1026.1 1026.1 0.0
19/10:30am 20.5 17.9 7.8 44 6.6 N 11 19 6 10 1026.9 1026.9 0.0
19/10:00am 19.0 17.3 9.8 55 4.9 WNW 9 13 5 7 1027.4 1027.4 0.0
19/09:30am 17.0 15.1 8.9 59 4.2 WNW 9 15 5 8 1027.7 1027.7 0.0
19/09:00am 15.9 14.1 9.6 66 3.3 NW 9 19 5 10 1027.6 1027.6 0.0
19/08:30am 14.0 12.1 9.0 72 2.5 W 9 13 5 7 1027.8 1027.8 0.0
19/08:00am 13.5 13.6 10.1 80 1.7 CALM 0 0 0 0 1027.8 1027.8 0.0
19/07:30am 11.1 10.9 9.0 87 1.0 CALM 0 0 0 0 1027.9 1027.9 0.0
19/07:00am 10.0 9.6 8.3 89 0.8 CALM 0 0 0 0 1027.4 1027.4 0.0
19/06:30am 9.2 8.7 7.8 91 0.7 CALM 0 0 0 0 1027.2 1027.2 0.0
19/06:00am 8.8 8.2 7.3 90 0.7 CALM 0 0 0 0 1027.0 1027.0 0.0
19/05:30am 9.2 8.6 7.6 90 0.8 CALM 0 0 0 0 1026.8 1026.8 0.0
19/05:00am 9.0 8.4 7.5 90 0.7 CALM 0 0 0 0 1027.1 1027.1 0.0
19/04:30am 9.4 8.9 8.0 91 0.7 CALM 0 0 0 0 1027.0 1027.0 0.0
19/04:00am 9.4 8.9 8.0 91 0.7 CALM 0 0 0 0 1027.3 1027.3 0.0
19/03:30am 9.8 9.4 8.2 90 0.8 CALM 0 0 0 0 1027.1 1027.1 0.0
19/03:00am 10.1 9.7 8.4 89 0.8 CALM 0 0 0 0 1027.2 1027.2 0.0
19/02:30am 10.3 10.0 8.6 89 0.8 CALM 0 0 0 0 1027.4 1027.4 0.0
19/02:00am 10.4 10.0 8.3 87 1.0 CALM 0 0 0 0 1027.5 1027.5 0.0
19/01:30am 11.0 10.7 8.6 85 1.2 CALM 0 0 0 0 1027.9 1027.9 0.0
19/01:00am 11.7 11.6 9.4 86 1.1 CALM 0 0 0 0 1028.5 1028.5 0.0
19/12:30am 11.5 11.2 8.7 83 1.4 CALM 0 0 0 0 1028.7 1028.7 0.0
19/12:00am 11.6 11.2 8.1 79 1.7 CALM 0 0 0 0 1028.5 1028.5 0.0
 
Date/Time
EDT
Tmp

°C
App
Tmp
°C
Dew
Point
°C
Rel
Hum
%
Delta-T

°C
Wind Press
QNH
hPa
Press
MSL
hPa
Rain
since
9 am
mm
Dir
 
Spd
km/h
Gust
km/h
Spd
kts
Gust
kts
18/11:30pm 12.6 12.3 8.5 76 2.0 CALM 0 0 0 0 1028.5 1028.5 0.0
18/11:00pm 13.1 12.8 8.6 74 2.2 CALM 0 0 0 0 1028.7 1028.7 0.0
18/10:30pm 13.9 13.6 8.5 70 2.7 CALM 0 0 0 0 1028.9 1028.9 0.0
18/10:00pm 13.8 13.4 8.4 70 2.7 CALM 0 0 0 0 1029.0 1029.0 0.0
18/09:30pm 14.4 13.4 7.2 62 3.5 NNE 2 6 1 3 1029.0 1029.0 0.0
18/09:00pm 16.2 14.4 7.9 58 4.1 NNE 7 11 4 6 1028.5 1028.5 0.0
18/08:30pm 16.6 14.3 7.5 55 4.6 NE 9 11 5 6 1028.1 1028.1 0.0
18/08:00pm 16.8 14.4 6.9 52 4.9 NE 9 17 5 9 1027.7 1027.7 0.0
18/07:30pm 17.4 13.8 6.6 49 5.3 NE 15 22 8 12 1027.4 1027.4 0.0
18/07:00pm 17.9 13.8 6.1 46 5.8 NE 17 22 9 12 1027.0 1027.0 0.0
18/06:30pm 18.5 14.1 6.4 45 6.0 ENE 19 28 10 15 1026.7 1026.7 0.0
18/06:00pm 19.0 14.4 6.5 44 6.2 NE 20 28 11 15 1026.3 1026.3 0.0
18/05:30pm 19.3 14.5 5.7 41 6.7 ENE 20 28 11 15 1026.3 1026.3 0.0
18/05:00pm 20.3 15.8 6.3 40 7.0 ENE 19 26 10 14 1026.2 1026.2 0.0
18/04:30pm 20.6 16.1 6.2 39 7.2 E 19 24 10 13 1026.2 1026.2 0.0
18/04:00pm 20.3 16.2 6.3 40 7.0 ESE 17 24 9 13 1026.3 1026.3 0.0
18/03:30pm 20.8 16.3 7.1 41 7.0 E 20 28 11 15 1026.5 1026.5 0.0
18/03:00pm 20.3 15.0 6.6 41 6.9 ESE 24 30 13 16 1027.0 1027.0 0.0
18/02:30pm 21.0 16.9 6.2 38 7.4 ENE 17 24 9 13 1027.2 1027.2 0.0
18/02:00pm 20.5 17.4 7.2 42 6.7 E 13 20 7 11 1027.5 1027.5 0.0
18/01:30pm 20.4 17.5 6.4 40 7.0 ESE 11 20 6 11 1027.8 1027.8 0.0
18/01:00pm 19.5 16.0 5.6 40 6.8 ESE 13 22 7 12 1028.3 1028.3 0.0
18/12:30pm 19.7 17.4 5.7 40 6.9 S 7 11 4 6 1028.9 1028.9 0.0
18/12:00pm 19.8 17.4 6.9 43 6.5 N 9 13 5 7 1029.5 1029.5 0.0
18/11:30am 18.5 16.5 7.0 47 5.8 N 7 13 4 7 1029.7 1029.7 0.0
18/11:00am 18.3 16.5 7.1 48 5.6 S 6 9 3 5 1030.1 1030.1 0.0
18/10:30am 17.2 15.4 7.3 52 5.0 E 6 9 3 5 1030.3 1030.3 0.0
18/10:00am 16.6 15.0 8.1 57 4.3 SSE 6 9 3 5 1030.4 1030.4 0.0

Latest Capital City Observations: Canberra | Sydney | Melbourne | Brisbane | Adelaide | Perth | Hobart | Darwin

Other Formats:

Comma delimited format used in spreadsheet applications
http://www.bom.gov.au/fwo/IDN60901/IDN60901.94765.axf

JavaScript Object Notation format (JSON) in row-major order
http://www.bom.gov.au/fwo/IDN60901/IDN60901.94765.json